カタログに戻る

METEOR 1-11 DEB

LostPO
NORAD 45503·DEBRIS·🇷🇺 Russia

打ち上げ Mar 30, 1972 から Plesetsk Cosmodrome

Loading…

次のパス (今後24時間)

TLE

古いSource: Space-Track

元期: Mar 31, 2023, 07:02 UTC

1 45503U 72022F   23090.29364940  .00012576  00000-0  52908-2 0  9998
2 45503  81.2172 302.4850 0037262 283.2633  76.4392 14.25333441348308

AllMySatでMETEOR 1-11 DEBをリアルタイム追跡

Download on the App Store